Terminal Aerodrome Forecast
Issued by NWS

Home | Current Version | Previous Version | Text Only | Print | Product List | Glossary On
Versions: 1 2 3 4 5 6 7 8 9 10 11 12 13 14 15 16 17 18 19 20 21 22 23 24 25 26 27 28 29 30 31 32
000
FTUS43 KDLH 261731
TAFHIB
TAF
KHIB 261731Z 2618/2718 VRB04KT P6SM OVC012
     FM270200 00000KT P6SM BKN040
     FM270500 00000KT 5SM BR BKN050
     FM271100 00000KT 2SM BR OVC010
     FM271500 05005KT 5SM BR BKN015=

USA.gov is the U.S. government's official web portal to all federal, state and local government web resources and services.